TimeMDT,TemperatureF,Dew PointF,Humidity,Sea Level PressureIn,VisibilityMPH,Wind Direction,Wind SpeedMPH,Gust SpeedMPH,PrecipitationIn,Events,Conditions,WindDirDegrees,DateUTC
12:53 AM,23.0,12.0,63,30.20,10.0,West,19.6,-,N/A,,Overcast,280,2013-04-18 06:53:00
1:53 AM,21.9,10.9,63,30.20,10.0,WNW,13.8,-,N/A,,Partly Cloudy,290,2013-04-18 07:53:00
2:53 AM,19.9,10.9,68,30.21,10.0,West,13.8,-,N/A,,Partly Cloudy,280,2013-04-18 08:53:00
3:53 AM,17.1,9.0,71,30.23,10.0,Calm,Calm,-,N/A,,Clear,0,2013-04-18 09:53:00
4:53 AM,17.1,10.0,74,30.23,10.0,West,12.7,-,N/A,,Clear,260,2013-04-18 10:53:00
5:53 AM,15.1,10.0,80,30.25,10.0,Variable,3.5,-,N/A,,Clear,0,2013-04-18 11:53:00
6:53 AM,14.0,8.1,77,30.30,10.0,WSW,4.6,-,N/A,,Clear,240,2013-04-18 12:53:00
7:53 AM,15.1,9.0,77,30.32,10.0,Calm,Calm,-,N/A,,Clear,0,2013-04-18 13:53:00
8:53 AM,19.9,10.9,68,30.32,10.0,Variable,4.6,-,N/A,,Scattered Clouds,0,2013-04-18 14:53:00
9:53 AM,23.0,10.9,60,30.32,10.0,East,3.5,-,N/A,,Clear,100,2013-04-18 15:53:00
10:53 AM,26.1,10.0,51,30.32,10.0,Calm,Calm,-,N/A,,Mostly Cloudy,0,2013-04-18 16:53:00
11:53 AM,28.9,12.0,49,30.30,10.0,SW,5.8,-,N/A,,Mostly Cloudy,230,2013-04-18 17:53:00
12:53 PM,30.0,10.0,43,30.30,10.0,WSW,5.8,20.7,N/A,,Overcast,240,2013-04-18 18:53:00
1:53 PM,32.0,10.0,40,30.30,10.0,West,17.3,26.5,N/A,,Overcast,280,2013-04-18 19:53:00
2:53 PM,34.0,14.0,44,30.31,10.0,West,18.4,29.9,N/A,,Overcast,270,2013-04-18 20:53:00
3:53 PM,35.1,15.1,44,30.32,10.0,West,21.9,28.8,N/A,,Overcast,280,2013-04-18 21:53:00
4:53 PM,36.0,16.0,44,30.32,10.0,WNW,17.3,24.2,N/A,,Mostly Cloudy,290,2013-04-18 22:53:00
5:53 PM,36.0,12.0,37,30.34,10.0,NW,5.8,16.1,N/A,,Mostly Cloudy,320,2013-04-18 23:53:00
6:53 PM,35.1,12.9,40,30.36,10.0,West,13.8,19.6,N/A,,Clear,270,2013-04-19 00:53:00
7:53 PM,32.0,17.1,54,30.37,10.0,SSW,4.6,-,N/A,,Clear,210,2013-04-19 01:53:00
8:53 PM,30.0,17.1,59,30.39,10.0,SSW,11.5,-,N/A,,Mostly Cloudy,210,2013-04-19 02:53:00
9:53 PM,28.0,19.9,72,30.40,10.0,SSE,6.9,-,N/A,,Mostly Cloudy,150,2013-04-19 03:53:00
10:53 PM,28.0,18.0,66,30.39,10.0,SE,5.8,-,N/A,,Clear,130,2013-04-19 04:53:00
11:53 PM,27.0,17.1,66,30.39,10.0,Variable,3.5,-,N/A,,Mostly Cloudy,0,2013-04-19 05:53:00